Simultaneous Nadir Overpasses (SNOs) Predictions

Prediction of SNOs between FY3D and TERRA Satellite Orbit:

Table of predicted SNOs for the next 14.0 days since TLE Epoch: 2/15/2020
Index Date (FY3D) Time (FY3D) Lat,Lon (FY3D) SZA (FY3D ) Date (TERRA) Time (TERRA) Lat,Lon (TERRA) SZA (TERRA ) Distance(km) Time Diff (sec)
1 02/15/2020 16:25:35 68.88, -67.39 81.53 02/15/2020 16:26:42 68.90, -67.38 81.54 2.08 67
2 02/15/2020 17:16:16 -68.77, 100.09 98.60 02/15/2020 17:16:13 -68.74, 100.05 98.63 3.30 3
3 02/15/2020 18:06:55 68.40, -92.11 81.00 02/15/2020 18:05:43 68.47, -92.64 81.09 23.22 72
4 02/18/2020 08:42:02 69.01, 48.35 80.73 02/18/2020 08:43:13 68.98, 48.58 80.68 9.85 71
5 02/18/2020 09:32:41 -68.78,-144.02 99.53 02/18/2020 09:32:45 -68.76,-144.06 99.54 2.16 4
6 02/18/2020 10:23:24 68.63, 23.49 80.31 02/18/2020 10:22:12 68.65, 23.45 80.34 3.14 72
7 02/21/2020 00:58:31 69.24, 163.93 80.01 02/21/2020 00:59:42 69.16, 164.67 79.90 30.83 71
8 02/21/2020 01:49:06 -68.79, -28.13 100.47 02/21/2020 01:49:17 -68.78, -28.17 100.48 1.78 11
9 02/21/2020 02:39:49 68.64, 139.37 79.37 02/21/2020 02:38:44 68.66, 139.33 79.40 2.80 65
10 02/23/2020 17:15:01 69.52, -80.58 79.33 02/23/2020 17:16:10 69.39, -79.16 79.15 57.26 69
11 02/23/2020 18:05:31 -68.80, 87.75 101.44 02/23/2020 18:05:49 -68.79, 87.71 101.44 1.97 18
12 02/23/2020 18:56:14 68.66,-104.75 78.41 02/23/2020 18:55:16 68.67,-104.80 78.43 2.25 58
13 02/26/2020 09:31:29 69.75, 34.99 78.58 02/26/2020 09:32:36 69.67, 37.09 78.43 81.33 67
14 02/26/2020 10:21:55 -68.81,-156.36 102.42 02/26/2020 10:22:20 -68.80,-156.42 102.43 2.48 25
15 02/26/2020 11:12:38 68.68, 11.13 77.44 02/26/2020 11:11:47 68.68, 11.08 77.44 2.03 51
16 02/29/2020 02:38:21 -68.87, -40.55 103.36 02/29/2020 02:38:51 -68.86, -40.48 103.38 3.00 30
17 02/29/2020 03:29:03 68.70, 127.00 76.45 02/29/2020 03:28:19 68.68, 126.94 76.44 2.99 44




NCC Satellite Simultaneous Nadir Overpasses (SNOs) Prediction Service
